This is the latest recevied weather packets stored in our database for station/object KD7AWQ. If no packets are shown the sender has not sent any weather packets the latest 10 day(s).
| Time | Temp. | Humidity | Pressure | Rain* | Wind** | Luminosity | Snow |
|---|---|---|---|---|---|---|---|
| 1777471747 | 16.67° C | 20% | 1186.5 hPa | 0 mm | - | 119 W/m² | - |
| 1777471444 | 16.67° C | 20% | 1186.3 hPa | 0 mm | - | 105 W/m² | - |
| 1777471140 | 16.67° C | 19% | 1186.2 hPa | 0 mm | - | 107 W/m² | - |
| 1777470837 | 16.67° C | 19% | 1185.7 hPa | 0 mm | - | 89 W/m² | - |
| 1777470535 | 16.67° C | 19% | 1186 hPa | 0 mm | - | 88 W/m² | - |
| 1777470230 | 16.67° C | 20% | 1186.1 hPa | 0 mm | - | 85 W/m² | - |
| 1777469927 | 16.67° C | 20% | 1185.8 hPa | 0 mm | - | 92 W/m² | - |
| 1777469622 | 16.67° C | 19% | 1186.1 hPa | 0 mm | - | 86 W/m² | - |
| 1777469318 | 16.11° C | 20% | 1186.3 hPa | 0 mm | - | 86 W/m² | - |
| 1777469013 | 16.11° C | 20% | 1186 hPa | 0 mm | - | 65 W/m² | - |
| 1777468709 | 15.56° C | 20% | 1185.8 hPa | 0 mm | - | 51 W/m² | - |
| 1777468405 | 15.56° C | 20% | 1185.8 hPa | 0 mm | - | 35 W/m² | - |
| 1777468102 | 15.56° C | 21% | 1185.8 hPa | 0 mm | - | 35 W/m² | - |
| 1777467798 | 15° C | 21% | 1185.6 hPa | 0 mm | - | 21 W/m² | - |
| 1777467493 | 15.56° C | 20% | 1185.8 hPa | 0 mm | - | 18 W/m² | - |
| 1777467189 | 15.56° C | 20% | 1185.7 hPa | 0 mm | - | 17 W/m² | - |
| 1777466886 | 15.56° C | 20% | 1185.8 hPa | 0 mm | - | 12 W/m² | - |
| 1777466584 | 15.56° C | 19% | 1185.7 hPa | 0 mm | - | 6 W/m² | - |
| 1777466280 | 15.56° C | 19% | 1185.6 hPa | 0 mm | - | 3 W/m² | - |
| 1777465976 | 15.56° C | 19% | 1185.6 hPa | 0 mm | - | 2 W/m² | - |
| 1777465672 | 15.56° C | 19% | 1185.6 hPa | 0 mm | - | 1 W/m² | - |
| 1777465368 | 15.56° C | 19% | 1185.6 hPa | 0 mm | - | 0 W/m² | - |
| 1777465067 | 15.56° C | 19% | 1185.8 hPa | 0 mm | - | 0 W/m² | - |
| 1777464763 | 15.56° C | 19% | 1185.7 hPa | 0 mm | - | 0 W/m² | - |
| 1777464459 | 16.11° C | 19% | 1186.1 hPa | 0 mm | - | 0 W/m² | - |
* Rain latest hour (hover to see other rain measurements)
** Current wind speed in m/s (hover to see current wind gust speed)